Latest Weather Observations for Tamworth Airport

IDN60801

Issued at 11:35 am EST Friday 1 August 2014 (issued every 30 minutes, with the page automatically refreshed every 10 minutes)

About weather observations | Map of weather stations | Latest weather observations for NSW | Other Formats
Station Details ID: 055325 Name: TAMWORTH AIRPORT AWS Lat: -31.07 Lon: 150.84 Height: 394.9 m
Data from the previous 72 hours. | See also: Recent months at Tamworth Airport
Date/Time
EST
Temp
°C
App
Temp
°C
Dew
Point
Rel
Hum
%
Delta-T
°C
Wind Press
QNH
hPa
Press
MSL
hPa
Rain
since 9 am
mm
Dir
 
Spd
km/h
Gust
km/h
Spd
kts
Gust
kts
01/11:30am 19.0 11.1 -1.4 25 8.9 NW 30 39 16 21 1011.9 - 0.0
01/11:00am 18.7 10.5 -1.2 26 8.7 NW 32 41 17 22 1012.1 1012.2 0.0
01/10:40am 18.6 10.4 -1.3 26 8.6 NW 32 50 17 27 1012.2 - 0.0
01/10:30am 18.1 9.7 -2.2 25 8.6 NW 32 44 17 24 1012.1 - 0.0
01/10:00am 17.3 8.9 -2.4 26 8.3 NW 32 39 17 21 1012.1 1012.2 0.0
01/09:30am 16.5 9.4 1.4 36 6.8 NW 28 37 15 20 1012.4 - 0.0
01/09:00am 16.4 10.1 1.3 36 6.8 NNW 24 32 13 17 1012.1 1012.4 0.0
01/08:30am 14.5 9.3 3.6 48 5.1 NNW 20 30 11 16 1012.1 - 0.0
01/08:00am 12.3 8.8 3.5 55 4.0 NW 11 15 6 8 1012.3 1012.7 0.0
01/07:30am 8.9 5.5 1.6 60 3.1 N 9 13 5 7 1012.0 - 0.0
01/07:00am 7.9 4.3 0.4 59 3.1 NNW 9 13 5 7 1012.1 1012.4 0.0
01/06:30am 6.8 2.7 -0.2 61 2.8 WNW 11 13 6 7 1012.0 - 0.0
01/06:00am 7.4 3.7 -0.3 58 3.1 NW 9 13 5 7 1011.9 1012.2 0.0
01/05:30am 7.4 3.3 -0.3 58 3.1 NNW 11 13 6 7 1011.7 - 0.0
01/05:00am 7.4 3.4 0.6 62 2.8 NW 11 13 6 7 1011.8 1012.1 0.0
01/04:30am 3.3 -0.6 -1.6 70 1.8 E 9 13 5 7 1011.9 - 0.0
01/04:00am 7.9 3.5 0.4 59 3.1 WNW 13 15 7 8 1011.8 1012.1 0.0
01/03:30am 4.5 1.1 -1.7 64 2.3 NE 6 11 3 6 1012.0 - 0.0
01/03:00am 7.3 3.2 -0.2 59 3.0 WNW 11 15 6 8 1012.2 1012.6 0.0
01/02:30am 6.9 3.9 -1.5 55 3.2 SW 4 9 2 5 1012.5 - 0.0
01/02:00am 8.3 4.1 -0.7 53 3.6 SW 11 15 6 8 1012.5 1012.9 0.0
01/01:30am 8.4 3.9 -0.6 53 3.6 WSW 13 15 7 8 1012.8 - 0.0
01/01:00am 7.5 4.7 -0.7 56 3.2 SW 4 13 2 7 1012.9 1013.2 0.0
01/12:30am 9.2 5.4 -0.9 49 4.0 N 9 11 5 6 1013.0 - 0.0
01/12:00am 9.4 6.2 -0.8 49 4.1 NW 6 7 3 4 1013.3 1013.6 0.0
 
Date/Time
EST
Temp
°C
App
Temp
°C
Dew
Point
Rel
Hum
%
Delta-T
°C
Wind Press
QNH
hPa
Press
MSL
hPa
Rain
since 9 am
mm
Dir
 
Spd
km/h
Gust
km/h
Spd
kts
Gust
kts
31/11:30pm 8.0 3.8 -0.7 54 3.5 W 11 13 6 7 1013.5 - 0.0
31/11:00pm 8.8 4.5 -1.3 49 4.0 WNW 11 15 6 8 1013.7 1014.0 0.0
31/10:30pm 10.7 6.1 -0.7 45 4.7 NW 13 19 7 10 1013.8 - 0.0
31/10:00pm 9.9 5.3 -1.2 46 4.4 W 13 17 7 9 1013.9 1014.2 0.0
31/09:30pm 10.2 5.6 -1.2 45 4.6 NNW 13 19 7 10 1013.8 - 0.0
31/09:00pm 11.1 6.5 -1.3 42 5.0 NNW 13 17 7 9 1013.9 1014.2 0.0
31/08:30pm 11.3 6.6 -1.5 41 5.2 N 13 15 7 8 1014.2 - 0.0
31/08:00pm 11.3 6.6 -1.8 40 5.2 N 13 15 7 8 1014.5 1014.9 0.0
31/07:30pm 11.7 7.1 -0.8 42 5.1 N 13 15 7 8 1014.7 - 0.0
31/07:00pm 12.2 7.4 0.0 43 5.1 NNW 15 17 8 9 1014.7 1015.1 0.0
31/06:30pm 12.4 7.9 -0.1 42 5.3 NNW 13 17 7 9 1014.5 - 0.0
31/06:00pm 13.5 9.6 0.9 42 5.5 NW 11 13 6 7 1014.4 1014.8 0.0
31/05:30pm 15.3 11.8 1.4 39 6.2 NW 9 11 5 6 1014.0 - 0.0
31/05:00pm 18.4 14.9 1.0 31 7.9 NW 9 11 5 6 1013.8 1014.1 0.0
31/04:30pm 20.5 16.6 1.4 28 8.9 WNW 11 15 6 8 1013.8 - 0.0
31/04:00pm 21.1 16.1 1.4 27 9.2 WNW 17 22 9 12 1013.6 1013.9 0.0
31/03:30pm 21.2 16.9 1.0 26 9.4 NW 13 19 7 10 1013.6 - 0.0
31/03:00pm 21.3 16.9 0.5 25 9.6 WNW 13 20 7 11 1014.0 1014.3 0.0
31/02:30pm 21.4 16.7 1.1 26 9.5 NW 15 24 8 13 1014.7 - 0.0
31/02:00pm 20.7 16.3 0.5 26 9.3 WNW 13 19 7 10 1015.1 1015.5 0.0
31/01:30pm 21.6 16.5 2.8 29 9.1 W 19 24 10 13 1015.8 - 0.0
31/01:00pm 21.5 17.5 0.7 25 9.6 NW 11 19 6 10 1016.4 1016.7 0.0
31/12:30pm 20.6 15.5 1.0 27 9.1 N 17 22 9 12 1017.2 - 0.0
31/12:00pm 19.5 14.9 1.5 30 8.3 N 15 24 8 13 1018.0 1018.4 0.0
31/11:30am 18.4 14.7 2.3 34 7.5 N 11 17 6 9 1018.9 - 0.0
31/11:00am 16.9 13.7 3.2 40 6.4 NW 9 13 5 7 1019.9 1020.3 0.0
31/10:30am 14.8 12.9 3.0 45 5.4 E 2 9 1 5 1020.4 - 0.0
31/10:00am 12.9 10.3 4.1 55 4.1 SE 7 11 4 6 1020.9 1021.3 0.0
31/09:30am 11.0 8.4 4.0 62 3.2 SE 7 9 4 5 1021.1 - 0.0
31/09:00am 9.3 6.3 3.9 69 2.4 ESE 9 11 5 6 1021.3 1021.7 0.0
31/08:30am 7.3 4.6 2.4 71 2.1 SSE 6 9 3 5 1021.4 - 0.0
31/08:00am 6.1 3.1 1.8 74 1.8 SE 7 9 4 5 1021.3 1021.7 0.0
31/07:30am 3.6 0.7 1.5 86 0.8 S 6 7 3 4 1021.3 - 0.0
31/07:00am 2.5 -0.5 0.6 87 0.7 S 6 7 3 4 1020.9 1021.3 0.0
31/06:30am 2.4 0.1 0.3 86 0.8 SE 2 7 1 4 1020.8 - 0.0
31/06:00am 3.7 0.8 1.4 85 0.9 SSE 6 6 3 3 1020.6 1021.0 0.0
31/05:30am 3.4 -0.2 0.8 83 1.0 SSE 9 15 5 8 1020.4 - 0.0
31/05:00am 3.4 -0.1 1.0 84 0.9 SE 9 11 5 6 1020.3 1020.7 0.0
31/04:30am 3.1 -0.1 0.7 84 0.9 SSE 7 9 4 5 1020.2 - 0.0
31/04:00am 2.8 -0.8 0.5 85 0.9 SSE 9 11 5 6 1020.2 1020.6 0.0
31/03:30am 3.1 -0.1 0.5 83 1.0 S 7 11 4 6 1020.2 - 0.0
31/03:00am 3.4 0.5 1.4 87 0.8 SE 6 7 3 4 1020.4 1020.8 0.0
31/02:30am 2.0 -1.3 -1.6 77 1.3 SSE 6 7 3 4 1020.6 - 0.0
31/02:00am 4.5 2.9 2.2 85 0.9 CALM 0 9 0 5 1020.5 1020.9 0.0
31/01:30am 3.0 1.0 0.2 82 1.1 CALM 0 0 0 0 1020.6 - 0.0
31/01:00am 5.3 2.6 2.8 84 1.0 SSE 6 7 3 4 1020.8 1021.2 0.0
31/12:30am 4.9 3.3 2.4 84 1.0 CALM 0 0 0 0 1020.9 - 0.0
31/12:00am 3.9 1.0 1.4 84 1.0 SSW 6 7 3 4 1021.2 1021.6 0.0
 
Date/Time
EST
Temp
°C
App
Temp
°C
Dew
Point
Rel
Hum
%
Delta-T
°C
Wind Press
QNH
hPa
Press
MSL
hPa
Rain
since 9 am
mm
Dir
 
Spd
km/h
Gust
km/h
Spd
kts
Gust
kts
30/11:30pm 4.4 1.2 0.6 76 1.5 SSE 7 9 4 5 1021.2 - 0.0
30/11:00pm 5.9 2.6 2.4 78 1.5 SE 9 11 5 6 1021.3 1021.7 0.0
30/10:30pm 6.8 5.4 3.4 79 1.5 CALM 0 0 0 0 1021.4 - 0.0
30/10:00pm 7.0 5.4 2.3 72 2.0 CALM 0 0 0 0 1021.4 1021.8 0.0
30/09:30pm 7.1 4.7 2.2 71 2.1 ESE 4 7 2 4 1021.4 - 0.0
30/09:00pm 7.5 4.6 1.6 66 2.5 E 6 7 3 4 1021.5 1021.9 0.0
30/08:30pm 9.5 6.6 1.2 56 3.5 NE 6 9 3 5 1021.2 - 0.0
30/08:00pm 11.5 9.2 2.5 54 4.0 NNE 4 7 2 4 1021.3 1021.7 0.0
30/07:30pm 11.2 9.7 2.8 56 3.7 CALM 0 7 0 4 1021.0 - 0.0
30/07:00pm 12.1 8.8 2.6 52 4.2 N 9 11 5 6 1020.5 1020.9 0.0
30/06:30pm 12.5 9.8 2.4 50 4.5 N 6 7 3 4 1020.3 - 0.0
30/06:00pm 14.2 11.3 2.5 45 5.3 NW 7 9 4 5 1020.2 1020.6 0.0
30/05:30pm 15.7 12.4 2.5 41 6.1 NW 9 9 5 5 1020.1 - 0.0
30/05:00pm 17.8 14.4 1.7 34 7.4 W 9 9 5 5 1020.3 1020.7 0.0
30/04:30pm 19.5 16.3 1.0 29 8.5 WNW 7 11 4 6 1020.2 - 0.0
30/04:00pm 19.6 16.0 0.6 28 8.6 NNW 9 13 5 7 1020.2 1020.6 0.0
30/03:30pm 19.6 15.2 0.6 28 8.6 NNW 13 20 7 11 1020.2 - 0.0
30/03:00pm 19.6 15.7 1.1 29 8.5 NNW 11 15 6 8 1020.3 1020.7 0.0
30/02:30pm 19.2 14.5 1.2 30 8.3 NW 15 20 8 11 1020.3 - 0.0
30/02:00pm 18.9 14.2 1.0 30 8.1 NW 15 24 8 13 1020.5 1020.9 0.0
30/01:30pm 18.5 13.4 0.6 30 8.1 NW 17 22 9 12 1020.8 - 0.0
30/01:00pm 18.1 14.1 0.7 31 7.8 NNW 11 20 6 11 1021.3 1021.7 0.0
30/12:30pm 17.4 13.0 0.6 32 7.5 NNW 13 24 7 13 1021.5 - 0.0
30/12:00pm 17.0 12.6 0.6 33 7.3 NW 13 19 7 10 1022.3 1022.7 0.0
30/11:30am 16.7 12.7 3.0 40 6.4 NNW 13 19 7 10 1022.5 - 0.0
30/11:00am 15.1 11.6 3.3 45 5.4 NNW 11 15 6 8 1023.1 1023.6 0.0
30/10:30am 14.4 12.8 4.7 52 4.6 ENE 2 7 1 4 1023.9 - 0.0
30/10:00am 11.9 9.3 4.2 59 3.5 ESE 7 11 4 6 1024.2 1024.6 0.0
30/09:30am 10.1 6.7 4.0 66 2.8 SE 11 13 6 7 1024.5 - 0.0
30/09:00am 8.5 5.0 3.4 70 2.2 SE 11 15 6 8 1024.5 1024.9 0.0
30/08:30am 6.5 2.1 2.6 76 1.6 ESE 15 17 8 9 1024.2 - 0.0
30/08:00am 5.4 1.7 2.1 79 1.4 SSE 11 15 6 8 1024.2 1024.6 0.0
30/07:30am 2.9 -0.2 1.4 90 0.6 SSE 7 9 4 5 1023.8 - 0.0
30/07:00am 1.8 -1.5 0.3 90 0.6 S 7 7 4 4 1023.6 1024.0 0.0
30/06:30am 1.5 -1.9 -0.4 87 0.7 SE 7 11 4 6 1023.3 - 0.0
30/06:00am 0.9 -2.5 -1.7 83 1.0 SE 6 9 3 5 1023.2 1023.7 0.0
30/05:30am 2.5 -0.7 0.9 89 0.6 SSE 7 9 4 5 1022.8 - 0.0
30/05:00am 1.8 -1.4 -0.3 86 0.8 SE 6 9 3 5 1022.7 1023.1 0.0
30/04:30am 2.6 -0.4 0.8 88 0.7 SSE 6 11 3 6 1022.4 - 0.0
30/04:00am 2.6 -0.6 0.7 87 0.7 SSE 7 9 4 5 1022.2 1022.6 0.0
30/03:30am 2.4 -0.8 0.9 90 0.6 S 7 9 4 5 1022.1 - 0.0
30/03:00am 2.1 -1.1 -0.3 84 0.9 SE 6 9 3 5 1022.1 1022.5 0.0
30/02:30am 3.0 0.0 0.7 85 0.9 SE 6 9 3 5 1022.2 - 0.0
30/02:00am 2.7 0.8 0.6 86 0.8 CALM 0 0 0 0 1022.2 1022.6 0.0
30/01:30am 3.7 1.2 1.6 86 0.8 SSE 4 6 2 3 1022.3 - 0.0
30/01:00am 3.2 0.2 1.1 86 0.8 S 6 9 3 5 1022.4 1022.8 0.0
30/12:30am 3.5 1.7 1.5 87 0.8 CALM 0 0 0 0 1022.4 - 0.0
30/12:00am 3.7 1.9 1.4 85 0.9 CALM 0 0 0 0 1022.5 1022.9 0.0
 
Date/Time
EST
Temp
°C
App
Temp
°C
Dew
Point
Rel
Hum
%
Delta-T
°C
Wind Press
QNH
hPa
Press
MSL
hPa
Rain
since 9 am
mm
Dir
 
Spd
km/h
Gust
km/h
Spd
kts
Gust
kts
29/11:30pm 4.3 2.6 1.7 83 1.1 CALM 0 0 0 0 1022.6 - 0.0
29/11:00pm 5.0 3.4 2.2 82 1.1 CALM 0 7 0 4 1022.8 1023.2 0.0
29/10:30pm 4.3 2.5 1.5 82 1.1 CALM 0 0 0 0 1022.7 - 0.0
29/10:00pm 5.4 2.4 1.9 78 1.4 SE 7 9 4 5 1022.6 1023.0 0.0
29/09:30pm 6.7 3.5 2.8 76 1.7 ESE 9 13 5 7 1022.6 - 0.0
29/09:00pm 9.2 7.5 2.1 61 3.0 CALM 0 0 0 0 1022.3 1022.7 0.0
29/08:30pm 9.1 7.5 2.2 62 3.0 CALM 0 0 0 0 1022.3 - 0.0
29/08:00pm 8.6 5.6 2.0 63 2.8 N 7 9 4 5 1021.8 1022.2 0.0
29/07:30pm 10.8 7.7 3.4 60 3.3 NE 9 9 5 5 1021.5 - 0.0
29/07:00pm 11.3 8.6 2.6 55 3.8 NW 6 7 3 4 1021.3 1021.7 0.0
29/06:30pm 12.5 9.2 2.7 51 4.4 NW 9 11 5 6 1020.8 - 0.0
29/06:00pm 13.4 10.2 2.9 49 4.7 NNW 9 9 5 5 1020.2 1020.6 0.0
29/05:30pm 13.9 11.2 2.5 46 5.1 NW 6 7 3 4 1020.0 - 0.0
29/05:00pm 15.3 12.4 2.5 42 5.8 NW 7 9 4 5 1019.8 1020.2 0.0
29/04:30pm 16.8 12.3 2.0 37 6.8 NW 15 19 8 10 1019.7 - 0.0
29/04:00pm 17.5 12.1 1.5 34 7.3 WNW 19 24 10 13 1020.0 1020.4 0.0
29/03:30pm 17.8 12.3 0.9 32 7.6 WNW 19 24 10 13 1020.2 - 0.0
29/03:00pm 18.1 12.6 0.7 31 7.8 WNW 19 28 10 15 1020.2 1020.6 0.0
29/02:30pm 17.7 12.1 1.2 33 7.5 NW 20 28 11 15 1020.1 - 0.0
29/02:00pm 17.3 12.0 1.7 35 7.1 NW 19 26 10 14 1020.5 1020.9 0.0
29/01:30pm 16.6 12.5 2.2 38 6.6 NW 13 22 7 12 1021.1 - 0.0
29/01:00pm 16.7 12.0 3.4 41 6.2 NW 17 20 9 11 1021.5 1021.9 0.0
29/12:30pm 16.0 11.7 3.1 42 6.0 NW 15 28 8 15 1022.3 - 0.0
29/12:00pm 15.5 12.6 4.8 49 5.1 NNW 9 17 5 9 1023.0 1023.5 0.0

Other Formats:

Comma delimited format used in spreadsheet applications
http://www.bom.gov.au/fwo/IDN60801/IDN60801.95762.axf

JavaScript Object Notation format (JSON) in row-major order
http://www.bom.gov.au/fwo/IDN60801/IDN60801.95762.json